Hourly Data Report for September 18, 2017

All times are specified in Local Standard Time (LST). Add 1 hour to adjust for Daylight Saving Time where and when it is observed.

WOODSTOCK NEWBRIDGE
NEW BRUNSWICK

46°09'08.000" N
67°32'34.000" W
154.00 m
8105603
71606
EWD

Download Data

Hourly Data (September 2017)
Hourly Data Report for September 18, 2017
Temp Definition
°C
Dew Point Temp Definition
°C
Rel Hum Definition
%
Wind Dir Definition
10's deg

Wind Spd Definition
km/h
Visibility Definition
km
Stn Press Definition
kPa
Hmdx Definition


Wind Chill Definition


Weather Definition


TIME
00:00 17.7 16.8 94 10 8   100.36     LegendNANA
01:00 17.5 16.7 95 11 6   100.37     LegendNANA
02:00 17.2 16.3 95 10 6   100.36     LegendNANA
03:00 17.0 15.9 94 12 6   100.35     LegendNANA
04:00 16.7 15.9 95 11 7   100.37     LegendNANA
05:00 16.5 15.6 95 12 5   100.41     LegendNANA
06:00 15.7 15.2 97 13 6   100.43     LegendNANA
07:00 15.5 15.2 98 11 8   100.45     LegendNANA
08:00 15.4 15.1 98 12 9   100.53     LegendNANA
09:00 15.7 14.9 95 12 7   100.56     LegendNANA
10:00 16.4 15.6 95 11 8   100.56     LegendNANA
11:00 16.9 15.4 91 11 8   100.57     LegendNANA
12:00 18.1 15.9 87 11 8   100.56     LegendNANA
13:00 19.9 15.9 77 13 3   100.53     LegendNANA
14:00 22.5 16.2 68 25 5   100.47 27   LegendNANA
15:00 24.7 16.4 60 13 8   100.46 30   LegendNANA
16:00 23.3 15.4 61 14 10   100.47 28   LegendNANA
17:00 22.5 15.6 65 15 10   100.48 27   LegendNANA
18:00 20.7 15.3 71 13 6   100.49 25   LegendNANA
19:00 18.8 15.3 80 12 10   100.52     LegendNANA
20:00 17.2 15.2 88 13 8   100.58     LegendNANA
21:00 16.0 14.4 90 16 11   100.63     LegendNANA
22:00 15.1 14.2 94 12 8   100.64     LegendNANA
23:00 14.7 14.0 96 13 8   100.66     LegendNANA

Notes on Data Quality.

Legend

  • E = Estimated
  • M = Missing
  • NA = Not Available
  • ‡ = Partner data that is not subject to review by the National Climate Archives
Date modified: